South Hill, VA

9:10 PM EST on November 15, 2019 (GMT -0500)
Mecklenburg-Brunswick Regional

Weather History for KAVC - August, 2019

Change the Weather History Date:

Saturday, August 17, 2019

  Actual Average (KEMV) Record (KEMV)
Temperature  
Mean Temperature 78 °F -  
Max Temperature 89 °F 89 °F 96 °F (1988)
Min Temperature 67 °F 65 °F 55 °F (1983)
Cooling Degree Days 13    
Growing Degree Days 28 (Base 50)    
Moisture  
Dew Point 73 °F    
Average Humidity 93    
Maximum Humidity 100    
Minimum Humidity 64    
Precipitation  
Precipitation 0.54 in - - ()
Sea Level Pressure  
Sea Level Pressure 30.06 in    
Wind  
Wind Speed 2 mph (SSW)    
Max Wind Speed 15 mph    
Max Gust Speed 47 mph    
Visibility 8 miles    
Events Thunderstorm    
Averages and records for this station are not official NWS values.
T = Trace of Precipitation, MM = Missing Value Source: NWS Daily Summary

Daily Weather History Graph

Daily Weather History Graph

Search for Another Location

Airport or City:

Astronomy

Aug. 17, 2019 Rise Set
Actual Time 6:30 AM EDT 8:01 PM EDT
Civil Twilight 6:03 AM EDT 8:28 PM EDT
Nautical Twilight 5:30 AM EDT 9:01 PM EDT
Astronomical Twilight 4:56 AM EDT 9:35 PM EDT
Moon 9:30 PM EDT (8/17) 8:16 AM EDT (8/17)
Length of Visible Light 14h 24m
Length of Day
13h 30m
Waning Gibbous, 96% of the Moon is Illuminated
Aug 17
Waning Gibbous
Aug 23
Last Quarter
Aug 30
New
Sep 5
First Quarter
Sep 14
Full

Hourly Weather History & Observations

Time (EDT) Temp. Heat Index Dew Point Humidity Pressure Visibility Wind Dir Wind Speed Gust Speed Precip Events Conditions
12:15 AM 73.4 °F - 73.4 °F 100% 30.05 in 10.0 mi Calm Calm - N/A   Clear
12:35 AM 73.6 °F - 73.6 °F 100% 30.05 in 10.0 mi Calm Calm - N/A   Clear
12:55 AM 73.4 °F - 73.4 °F 100% 30.05 in 10.0 mi Calm Calm - N/A   Mostly Cloudy
1:15 AM 73.6 °F - 73.6 °F 100% 30.05 in 10.0 mi Calm Calm - N/A   Overcast
1:35 AM 73.4 °F - 73.4 °F 100% 30.05 in 10.0 mi Calm Calm - N/A   Overcast
1:55 AM 73.4 °F - 73.4 °F 100% 30.05 in 10.0 mi Calm Calm - N/A   Overcast
2:15 AM 73.4 °F - 73.4 °F 100% 30.05 in 10.0 mi Calm Calm - N/A   Overcast
2:35 AM 73.4 °F - 73.4 °F 100% 30.05 in 10.0 mi SW 3.5 mph - N/A   Overcast
2:55 AM 73.4 °F - 73.4 °F 100% 30.05 in 7.0 mi Calm Calm - N/A   Overcast
3:15 AM 73.0 °F - 73.0 °F 100% 30.05 in 7.0 mi Calm Calm - N/A   Overcast
3:35 AM 73.4 °F - 73.4 °F 100% 30.05 in 7.0 mi Calm Calm - N/A   Overcast
3:55 AM 73.4 °F - 73.4 °F 100% 30.05 in 7.0 mi Calm Calm - N/A   Overcast
4:15 AM 73.0 °F - 73.0 °F 100% 30.05 in 7.0 mi South 3.5 mph - N/A   Overcast
4:35 AM 72.9 °F - 72.9 °F 100% 30.05 in 4.0 mi South 3.5 mph - N/A   Overcast
4:55 AM 72.9 °F - 72.9 °F 100% 30.05 in 3.0 mi SSW 4.6 mph - N/A   Overcast
5:15 AM 73.0 °F - 73.0 °F 100% 30.04 in 4.0 mi Calm Calm - N/A   Overcast
5:35 AM 73.0 °F - 73.0 °F 100% 30.04 in 3.0 mi SW 3.5 mph - N/A   Overcast
5:55 AM 73.0 °F - 73.0 °F 100% 30.04 in 1.0 mi SW 4.6 mph - N/A   Overcast
6:15 AM 73.0 °F - 73.0 °F 100% 30.05 in 4.0 mi SW 6.9 mph - N/A   Overcast
6:35 AM 73.4 °F - 73.4 °F 100% 30.05 in 7.0 mi SW 5.8 mph - N/A   Overcast
6:55 AM 73.4 °F - 73.4 °F 100% 30.05 in 5.0 mi WSW 3.5 mph - N/A   Overcast
7:15 AM 73.4 °F - 73.4 °F 100% 30.05 in 5.0 mi SSW 3.5 mph - N/A   Overcast
7:35 AM 73.6 °F - 73.6 °F 100% 30.07 in 1.5 mi SSW 5.8 mph - N/A   Overcast
7:55 AM 73.8 °F - 73.8 °F 100% 30.07 in 2.5 mi SSW 3.5 mph - N/A   Overcast
8:15 AM 74.3 °F - 74.3 °F 100% 30.07 in 3.0 mi SSW 3.5 mph - N/A   Overcast
8:35 AM 74.7 °F - 74.7 °F 100% 30.08 in 4.0 mi SSW 3.5 mph - N/A   Overcast
8:55 AM 76.1 °F - 76.1 °F 100% 30.07 in 7.0 mi SW 3.5 mph - N/A   Overcast
9:15 AM 77.0 °F - 77.0 °F 100% 30.07 in 10.0 mi Calm Calm - N/A   Overcast
9:35 AM 79.9 °F - 77.5 °F 93% 30.08 in 10.0 mi Calm Calm - N/A   Scattered Clouds
9:55 AM 81.0 °F 87.9 °F 77.2 °F 88% 30.07 in 10.0 mi Calm Calm - N/A   Scattered Clouds
10:15 AM 81.9 °F 90.5 °F 77.9 °F 88% 30.08 in 10.0 mi Calm Calm - N/A   Scattered Clouds
10:35 AM 83.5 °F 94.0 °F 78.1 °F 84% 30.08 in 10.0 mi Calm Calm - N/A   Mostly Cloudy
10:55 AM 82.8 °F 91.9 °F 77.4 °F 84% 30.09 in 10.0 mi Calm Calm - N/A   Overcast
11:15 AM 84.4 °F 94.6 °F 77.4 °F 79% 30.09 in 10.0 mi Calm Calm - N/A   Overcast
11:35 AM 84.6 °F 94.3 °F 76.5 °F 77% 30.09 in 10.0 mi Calm Calm - N/A   Scattered Clouds
11:55 AM 86.2 °F 97.8 °F 77.4 °F 75% 30.09 in 10.0 mi Calm Calm - N/A   Mostly Cloudy
12:15 PM 85.5 °F 96.3 °F 77.2 °F 76% 30.10 in 10.0 mi Calm Calm - N/A   Scattered Clouds
12:35 PM 86.9 °F 97.3 °F 76.1 °F 70% 30.09 in 10.0 mi SSE 3.5 mph - N/A   Mostly Cloudy
12:55 PM 87.8 °F 98.1 °F 75.6 °F 67% 30.08 in 10.0 mi Calm Calm - N/A   Scattered Clouds
1:15 PM 88.7 °F 98.7 °F 75.2 °F 64% 30.07 in 10.0 mi South 3.5 mph - N/A   Scattered Clouds
1:35 PM 88.3 °F 99.5 °F 76.3 °F 67% 30.07 in 10.0 mi Calm Calm - N/A   Mostly Cloudy
1:55 PM 89.4 °F 101.1 °F 76.5 °F 65% 30.06 in 10.0 mi Calm Calm - N/A   Overcast
2:15 PM 87.1 °F 96.8 °F 75.6 °F 68% 30.05 in 10.0 mi Calm Calm - N/A   Overcast
2:35 PM 85.8 °F 95.9 °F 76.5 °F 73% 30.04 in 10.0 mi Calm Calm - N/A   Overcast
2:55 PM 86.2 °F 97.8 °F 77.4 °F 75% 30.05 in 10.0 mi Calm Calm - N/A   Scattered Clouds
3:15 PM 89.1 °F 102.6 °F 77.7 °F 69% 30.04 in 10.0 mi SSE 4.6 mph - N/A   Scattered Clouds
3:35 PM 86.4 °F 97.4 °F 76.6 °F 73% 30.05 in 10.0 mi South 3.5 mph - N/A Thunderstorm Thunderstorm
3:55 PM 71.2 °F - 68.2 °F 90% 30.09 in 4.0 mi NNW 15.0 mph 47.2 mph 0.04 in Thunderstorm Thunderstorm
4:15 PM 70.9 °F - 68.7 °F 93% 30.05 in 1.2 mi SSE 11.5 mph 16.1 mph 0.49 in Thunderstorm Thunderstorm
4:35 PM 72.9 °F - 71.8 °F 96% 30.04 in 10.0 mi SE 4.6 mph - 0.50 in Thunderstorm Scattered Clouds
4:55 PM 72.5 °F - 71.4 °F 96% 30.05 in 10.0 mi Calm Calm - 0.50 in Thunderstorm Clear
5:15 PM 72.5 °F - 71.6 °F 97% 30.07 in 10.0 mi SSE 4.6 mph - N/A Thunderstorm Thunderstorm
5:35 PM 72.5 °F - 71.8 °F 98% 30.07 in 10.0 mi Calm Calm - N/A   Clear
5:55 PM 72.0 °F - 71.6 °F 99% 30.07 in 10.0 mi Calm Calm - N/A Thunderstorm Thunderstorm
6:15 PM 71.1 °F - 71.1 °F 100% 30.08 in 10.0 mi Calm Calm - N/A   Mostly Cloudy
6:35 PM 70.5 °F - 70.5 °F 100% 30.08 in 10.0 mi SSE 6.9 mph - N/A   Scattered Clouds
6:55 PM 70.3 °F - 70.3 °F 100% 30.08 in 10.0 mi South 8.1 mph - N/A   Mostly Cloudy
7:15 PM 70.2 °F - 70.2 °F 100% 30.08 in 10.0 mi South 3.5 mph - N/A   Scattered Clouds
7:35 PM 70.0 °F - 70.0 °F 100% 30.07 in 10.0 mi SSW 4.6 mph - N/A   Clear
7:55 PM 69.8 °F - 69.8 °F 100% 30.05 in 10.0 mi SSW 4.6 mph - N/A   Clear
8:15 PM 69.8 °F - 69.8 °F 100% 30.04 in 10.0 mi SW 4.6 mph - N/A   Clear
8:35 PM 70.0 °F - 70.0 °F 100% 30.05 in 10.0 mi Calm Calm - N/A   Clear
8:55 PM 70.2 °F - 70.2 °F 100% 30.05 in 10.0 mi Calm Calm - N/A   Clear
9:15 PM 68.9 °F - 68.9 °F 100% 30.05 in 10.0 mi East 3.5 mph - N/A   Clear
9:35 PM 68.9 °F - 68.9 °F 100% 30.06 in 10.0 mi Calm Calm - N/A   Clear
9:55 PM 68.7 °F - 68.7 °F 100% 30.07 in 10.0 mi Calm Calm - N/A   Clear
10:15 PM 68.2 °F - 68.2 °F 100% 30.07 in 10.0 mi Calm Calm - N/A   Clear
10:35 PM 68.0 °F - 68.0 °F 100% 30.08 in 10.0 mi South 3.5 mph - N/A   Clear
10:55 PM 67.5 °F - 67.5 °F 100% 30.08 in 10.0 mi South 3.5 mph - N/A   Clear
11:15 PM 67.6 °F - 67.6 °F 100% 30.08 in 10.0 mi Calm Calm - N/A   Clear
11:35 PM 67.6 °F - 67.6 °F 100% 30.09 in 10.0 mi Calm Calm - N/A   Clear
11:55 PM 67.6 °F - 67.6 °F 100% 30.09 in 10.0 mi Calm Calm - N/A   Clear